Year,Month,Day,Hour,Minute,Value (Times are PST for windspeed in km/hr)
2010,05,04,00,00,83.50
2010,05,04,00,01,83.50
2010,05,04,00,02,83.50
2010,05,04,00,03,83.50
2010,05,04,00,04,83.50
2010,05,04,00,05,83.50
2010,05,04,00,06,83.50
2010,05,04,00,07,83.50
2010,05,04,00,08,83.50
2010,05,04,00,09,83.50
2010,05,04,00,10,83.50
2010,05,04,00,11,83.50
2010,05,04,00,12,83.50
2010,05,04,00,13,83.50
2010,05,04,00,14,83.50
2010,05,04,00,15,74.50
2010,05,04,00,16,74.50
2010,05,04,00,17,74.50
2010,05,04,00,18,74.50
2010,05,04,00,19,74.50
2010,05,04,00,20,74.50
2010,05,04,00,21,74.50
2010,05,04,00,22,74.50
2010,05,04,00,23,74.50
2010,05,04,00,24,74.50
2010,05,04,00,25,74.50
2010,05,04,00,26,74.50
2010,05,04,00,27,74.50
2010,05,04,00,28,74.50
2010,05,04,00,29,74.50
2010,05,04,00,30,56.70
2010,05,04,00,31,56.70
2010,05,04,00,32,56.70
2010,05,04,00,33,56.70
2010,05,04,00,34,56.70
2010,05,04,00,35,56.70
2010,05,04,00,36,56.70
2010,05,04,00,37,56.70
2010,05,04,00,38,56.70
2010,05,04,00,39,56.70
2010,05,04,00,40,56.70
2010,05,04,00,41,56.70
2010,05,04,00,42,56.70
2010,05,04,00,43,56.70
2010,05,04,00,44,56.70
2010,05,04,00,45,74.50
2010,05,04,00,46,74.50
2010,05,04,00,47,74.50
2010,05,04,00,48,74.50
2010,05,04,00,49,74.50
2010,05,04,00,50,74.50
2010,05,04,00,51,74.50
2010,05,04,00,52,74.50
2010,05,04,00,53,74.50
2010,05,04,00,54,74.50
2010,05,04,00,55,74.50
2010,05,04,00,56,74.50
2010,05,04,00,57,74.50
2010,05,04,00,58,74.50
2010,05,04,00,59,74.50
2010,05,04,01,00,65.60
2010,05,04,01,01,65.60
2010,05,04,01,02,65.60
2010,05,04,01,03,65.60
2010,05,04,01,04,65.60
2010,05,04,01,05,65.60
2010,05,04,01,06,65.60
2010,05,04,01,07,65.60
2010,05,04,01,08,65.60
2010,05,04,01,09,65.60
2010,05,04,01,10,65.60
2010,05,04,01,11,65.60
2010,05,04,01,12,65.60
2010,05,04,01,13,65.60
2010,05,04,01,14,65.60
2010,05,04,01,15,56.70
2010,05,04,01,16,56.70
2010,05,04,01,17,56.70
2010,05,04,01,18,56.70
2010,05,04,01,19,56.70
2010,05,04,01,20,56.70
2010,05,04,01,21,56.70
2010,05,04,01,22,56.70
2010,05,04,01,23,56.70
2010,05,04,01,24,56.70
2010,05,04,01,25,56.70
2010,05,04,01,26,56.70
2010,05,04,01,27,56.70
2010,05,04,01,28,56.70
2010,05,04,01,29,56.70
2010,05,04,01,30,74.50
2010,05,04,01,31,74.50
2010,05,04,01,32,74.50
2010,05,04,01,33,74.50
2010,05,04,01,34,74.50
2010,05,04,01,35,74.50
2010,05,04,01,36,74.50
2010,05,04,01,37,74.50
2010,05,04,01,38,74.50
2010,05,04,01,39,74.50
2010,05,04,01,40,74.50
2010,05,04,01,41,74.50
2010,05,04,01,42,74.50
2010,05,04,01,43,74.50
2010,05,04,01,44,74.50
2010,05,04,01,45,47.60
2010,05,04,01,46,47.60
2010,05,04,01,47,47.60
2010,05,04,01,48,47.60
2010,05,04,01,49,47.60
2010,05,04,01,50,47.60
2010,05,04,01,51,47.60
2010,05,04,01,52,47.60
2010,05,04,01,53,47.60
2010,05,04,01,54,47.60
2010,05,04,01,55,47.60
2010,05,04,01,56,47.60
2010,05,04,01,57,47.60
2010,05,04,01,58,47.60
2010,05,04,01,59,47.60
2010,05,04,02,00,47.60
2010,05,04,02,01,47.60
2010,05,04,02,02,47.60
2010,05,04,02,03,47.60
2010,05,04,02,04,47.60
2010,05,04,02,05,47.60
2010,05,04,02,06,47.60
2010,05,04,02,07,47.60
2010,05,04,02,08,47.60
2010,05,04,02,09,47.60
2010,05,04,02,10,47.60
2010,05,04,02,11,47.60
2010,05,04,02,12,47.60
2010,05,04,02,13,47.60
2010,05,04,02,14,47.60
2010,05,04,02,15,47.60
2010,05,04,02,16,47.60
2010,05,04,02,17,47.60
2010,05,04,02,18,47.60
2010,05,04,02,19,47.60
2010,05,04,02,20,47.60
2010,05,04,02,21,47.60
2010,05,04,02,22,47.60
2010,05,04,02,23,47.60
2010,05,04,02,24,47.60
2010,05,04,02,25,47.60
2010,05,04,02,26,47.60
2010,05,04,02,27,47.60
2010,05,04,02,28,47.60
2010,05,04,02,29,47.60
2010,05,04,02,30,65.60
2010,05,04,02,31,65.60
2010,05,04,02,32,65.60
2010,05,04,02,33,65.60
2010,05,04,02,34,65.60
2010,05,04,02,35,65.60
2010,05,04,02,36,65.60
2010,05,04,02,37,65.60
2010,05,04,02,38,65.60
2010,05,04,02,39,65.60
2010,05,04,02,40,65.60
2010,05,04,02,41,65.60
2010,05,04,02,42,65.60
2010,05,04,02,43,65.60
2010,05,04,02,44,65.60
2010,05,04,02,45,65.60
2010,05,04,02,46,65.60
2010,05,04,02,47,65.60
2010,05,04,02,48,65.60
2010,05,04,02,49,65.60
2010,05,04,02,50,65.60
2010,05,04,02,51,65.60
2010,05,04,02,52,65.60
2010,05,04,02,53,65.60
2010,05,04,02,54,65.60
2010,05,04,02,55,65.60
2010,05,04,02,56,65.60
2010,05,04,02,57,65.60
2010,05,04,02,58,65.60
2010,05,04,02,59,65.60
2010,05,04,03,00,56.70
2010,05,04,03,01,56.70
2010,05,04,03,02,56.70
2010,05,04,03,03,56.70
2010,05,04,03,04,56.70
2010,05,04,03,05,56.70
2010,05,04,03,06,56.70
2010,05,04,03,07,56.70
2010,05,04,03,08,56.70
2010,05,04,03,09,56.70
2010,05,04,03,10,56.70
2010,05,04,03,11,56.70
2010,05,04,03,12,56.70
2010,05,04,03,13,56.70
2010,05,04,03,14,56.70
2010,05,04,03,15,56.70
2010,05,04,03,16,56.70
2010,05,04,03,17,56.70
2010,05,04,03,18,56.70
2010,05,04,03,19,56.70
2010,05,04,03,20,56.70
2010,05,04,03,21,56.70
2010,05,04,03,22,56.70
2010,05,04,03,23,56.70
2010,05,04,03,24,56.70
2010,05,04,03,25,56.70
2010,05,04,03,26,56.70
2010,05,04,03,27,56.70
2010,05,04,03,28,56.70
2010,05,04,03,29,56.70
2010,05,04,03,30,65.60
2010,05,04,03,31,65.60
2010,05,04,03,32,65.60
2010,05,04,03,33,65.60
2010,05,04,03,34,65.60
2010,05,04,03,35,65.60
2010,05,04,03,36,65.60
2010,05,04,03,37,65.60
2010,05,04,03,38,65.60
2010,05,04,03,39,65.60
2010,05,04,03,40,65.60
2010,05,04,03,41,65.60
2010,05,04,03,42,65.60
2010,05,04,03,43,65.60
2010,05,04,03,44,65.60
2010,05,04,03,45,38.70
2010,05,04,03,46,38.70
2010,05,04,03,47,38.70
2010,05,04,03,48,38.70
2010,05,04,03,49,38.70
2010,05,04,03,50,38.70
2010,05,04,03,51,38.70
2010,05,04,03,52,38.70
2010,05,04,03,53,38.70
2010,05,04,03,54,38.70
2010,05,04,03,55,38.70
2010,05,04,03,56,38.70
2010,05,04,03,57,38.70
2010,05,04,03,58,38.70
2010,05,04,03,59,38.70
2010,05,04,04,00,65.60
2010,05,04,04,01,65.60
2010,05,04,04,02,65.60
2010,05,04,04,03,65.60
2010,05,04,04,04,65.60
2010,05,04,04,05,65.60
2010,05,04,04,06,65.60
2010,05,04,04,07,65.60
2010,05,04,04,08,65.60
2010,05,04,04,09,65.60
2010,05,04,04,10,65.60
2010,05,04,04,11,65.60
2010,05,04,04,12,65.60
2010,05,04,04,13,65.60
2010,05,04,04,14,65.60
2010,05,04,04,15,59.60
2010,05,04,04,16,59.60
2010,05,04,04,17,59.60
2010,05,04,04,18,59.60
2010,05,04,04,19,59.60
2010,05,04,04,20,59.60
2010,05,04,04,21,59.60
2010,05,04,04,22,59.60
2010,05,04,04,23,59.60
2010,05,04,04,24,59.60
2010,05,04,04,25,59.60
2010,05,04,04,26,59.60
2010,05,04,04,27,59.60
2010,05,04,04,28,59.60
2010,05,04,04,29,59.60
2010,05,04,04,30,53.70
2010,05,04,04,31,53.70
2010,05,04,04,32,53.70
2010,05,04,04,33,53.70
2010,05,04,04,34,53.70
2010,05,04,04,35,53.70
2010,05,04,04,36,53.70
2010,05,04,04,37,53.70
2010,05,04,04,38,53.70
2010,05,04,04,39,53.70
2010,05,04,04,40,53.70
2010,05,04,04,41,53.70
2010,05,04,04,42,53.70
2010,05,04,04,43,53.70
2010,05,04,04,44,53.70
2010,05,04,04,45,68.50
2010,05,04,04,46,68.50
2010,05,04,04,47,68.50
2010,05,04,04,48,68.50
2010,05,04,04,49,68.50
2010,05,04,04,50,68.50
2010,05,04,04,51,68.50
2010,05,04,04,52,68.50
2010,05,04,04,53,68.50
2010,05,04,04,54,68.50
2010,05,04,04,55,68.50
2010,05,04,04,56,68.50
2010,05,04,04,57,68.50
2010,05,04,04,58,68.50
2010,05,04,04,59,68.50
2010,05,04,05,00,71.50
2010,05,04,05,01,71.50
2010,05,04,05,02,71.50
2010,05,04,05,03,71.50
2010,05,04,05,04,71.50
2010,05,04,05,05,71.50
2010,05,04,05,06,71.50
2010,05,04,05,07,71.50
2010,05,04,05,08,71.50
2010,05,04,05,09,71.50
2010,05,04,05,10,71.50
2010,05,04,05,11,71.50
2010,05,04,05,12,71.50
2010,05,04,05,13,71.50
2010,05,04,05,14,71.50
2010,05,04,05,15,59.60
2010,05,04,05,16,59.60
2010,05,04,05,17,59.60
2010,05,04,05,18,59.60
2010,05,04,05,19,59.60
2010,05,04,05,20,59.60
2010,05,04,05,21,59.60
2010,05,04,05,22,59.60
2010,05,04,05,23,59.60
2010,05,04,05,24,59.60
2010,05,04,05,25,59.60
2010,05,04,05,26,59.60
2010,05,04,05,27,59.60
2010,05,04,05,28,59.60
2010,05,04,05,29,59.60
2010,05,04,05,30,71.50
2010,05,04,05,31,71.50
2010,05,04,05,32,71.50
2010,05,04,05,33,71.50
2010,05,04,05,34,71.50
2010,05,04,05,35,71.50
2010,05,04,05,36,71.50
2010,05,04,05,37,71.50
2010,05,04,05,38,71.50
2010,05,04,05,39,71.50
2010,05,04,05,40,71.50
2010,05,04,05,41,71.50
2010,05,04,05,42,71.50
2010,05,04,05,43,71.50
2010,05,04,05,44,71.50
2010,05,04,05,45,56.70
2010,05,04,05,46,56.70
2010,05,04,05,47,56.70
2010,05,04,05,48,56.70
2010,05,04,05,49,56.70
2010,05,04,05,50,56.70
2010,05,04,05,51,56.70
2010,05,04,05,52,56.70
2010,05,04,05,53,56.70
2010,05,04,05,54,56.70
2010,05,04,05,55,56.70
2010,05,04,05,56,56.70
2010,05,04,05,57,56.70
2010,05,04,05,58,56.70
2010,05,04,05,59,56.70
2010,05,04,06,00,59.60
2010,05,04,06,01,59.60
2010,05,04,06,02,59.60
2010,05,04,06,03,59.60
2010,05,04,06,04,59.60
2010,05,04,06,05,59.60
2010,05,04,06,06,59.60
2010,05,04,06,07,59.60
2010,05,04,06,08,59.60
2010,05,04,06,09,59.60
2010,05,04,06,10,59.60
2010,05,04,06,11,59.60
2010,05,04,06,12,59.60
2010,05,04,06,13,59.60
2010,05,04,06,14,59.60
2010,05,04,06,15,38.70
2010,05,04,06,16,38.70
2010,05,04,06,17,38.70
2010,05,04,06,18,38.70
2010,05,04,06,19,38.70
2010,05,04,06,20,38.70
2010,05,04,06,21,38.70
2010,05,04,06,22,38.70
2010,05,04,06,23,38.70
2010,05,04,06,24,38.70
2010,05,04,06,25,38.70
2010,05,04,06,26,38.70
2010,05,04,06,27,38.70
2010,05,04,06,28,38.70
2010,05,04,06,29,38.70
2010,05,04,06,30,53.70
2010,05,04,06,31,53.70
2010,05,04,06,32,53.70
2010,05,04,06,33,53.70
2010,05,04,06,34,53.70
2010,05,04,06,35,53.70
2010,05,04,06,36,53.70
2010,05,04,06,37,53.70
2010,05,04,06,38,53.70
2010,05,04,06,39,53.70
2010,05,04,06,40,53.70
2010,05,04,06,41,53.70
2010,05,04,06,42,53.70
2010,05,04,06,43,53.70
2010,05,04,06,44,53.70
2010,05,04,06,45,77.40
2010,05,04,06,46,77.40
2010,05,04,06,47,77.40
2010,05,04,06,48,77.40
2010,05,04,06,49,77.40
2010,05,04,06,50,77.40
2010,05,04,06,51,77.40
2010,05,04,06,52,77.40
2010,05,04,06,53,77.40
2010,05,04,06,54,77.40
2010,05,04,06,55,77.40
2010,05,04,06,56,77.40
2010,05,04,06,57,77.40
2010,05,04,06,58,77.40
2010,05,04,06,59,77.40
2010,05,04,07,00,68.50
2010,05,04,07,01,68.50
2010,05,04,07,02,68.50
2010,05,04,07,03,68.50
2010,05,04,07,04,68.50
2010,05,04,07,05,68.50
2010,05,04,07,06,68.50
2010,05,04,07,07,68.50
2010,05,04,07,08,68.50
2010,05,04,07,09,68.50
2010,05,04,07,10,68.50
2010,05,04,07,11,68.50
2010,05,04,07,12,68.50
2010,05,04,07,13,68.50
2010,05,04,07,14,68.50
2010,05,04,07,15,38.70
2010,05,04,07,16,38.70
2010,05,04,07,17,38.70
2010,05,04,07,18,38.70
2010,05,04,07,19,38.70
2010,05,04,07,20,38.70
2010,05,04,07,21,38.70
2010,05,04,07,22,38.70
2010,05,04,07,23,38.70
2010,05,04,07,24,38.70
2010,05,04,07,25,38.70
2010,05,04,07,26,38.70
2010,05,04,07,27,38.70
2010,05,04,07,28,38.70
2010,05,04,07,29,38.70
2010,05,04,07,30,65.60
2010,05,04,07,31,65.60
2010,05,04,07,32,65.60
2010,05,04,07,33,65.60
2010,05,04,07,34,65.60
2010,05,04,07,35,65.60
2010,05,04,07,36,65.60
2010,05,04,07,37,65.60
2010,05,04,07,38,65.60
2010,05,04,07,39,65.60
2010,05,04,07,40,65.60
2010,05,04,07,41,65.60
2010,05,04,07,42,65.60
2010,05,04,07,43,65.60
2010,05,04,07,44,65.60
2010,05,04,07,45,59.60
2010,05,04,07,46,59.60
2010,05,04,07,47,59.60
2010,05,04,07,48,59.60
2010,05,04,07,49,59.60
2010,05,04,07,50,59.60
2010,05,04,07,51,59.60
2010,05,04,07,52,59.60
2010,05,04,07,53,59.60
2010,05,04,07,54,59.60
2010,05,04,07,55,59.60
2010,05,04,07,56,59.60
2010,05,04,07,57,59.60
2010,05,04,07,58,59.60
2010,05,04,07,59,59.60
2010,05,04,08,00,77.40
2010,05,04,08,01,77.40
2010,05,04,08,02,77.40
2010,05,04,08,03,77.40
2010,05,04,08,04,77.40
2010,05,04,08,05,77.40
2010,05,04,08,06,77.40
2010,05,04,08,07,77.40
2010,05,04,08,08,77.40
2010,05,04,08,09,77.40
2010,05,04,08,10,77.40
2010,05,04,08,11,77.40
2010,05,04,08,12,77.40
2010,05,04,08,13,77.40
2010,05,04,08,14,77.40
2010,05,04,08,15,68.50
2010,05,04,08,16,68.50
2010,05,04,08,17,68.50
2010,05,04,08,18,68.50
2010,05,04,08,19,68.50
2010,05,04,08,20,68.50
2010,05,04,08,21,68.50
2010,05,04,08,22,68.50
2010,05,04,08,23,68.50
2010,05,04,08,24,68.50
2010,05,04,08,25,68.50
2010,05,04,08,26,68.50
2010,05,04,08,27,68.50
2010,05,04,08,28,68.50
2010,05,04,08,29,68.50
2010,05,04,08,30,35.70
2010,05,04,08,31,35.70
2010,05,04,08,32,35.70
2010,05,04,08,33,35.70
2010,05,04,08,34,35.70
2010,05,04,08,35,35.70
2010,05,04,08,36,35.70
2010,05,04,08,37,35.70
2010,05,04,08,38,35.70
2010,05,04,08,39,35.70
2010,05,04,08,40,35.70
2010,05,04,08,41,35.70
2010,05,04,08,42,35.70
2010,05,04,08,43,35.70
2010,05,04,08,44,35.70
2010,05,04,08,45,53.70
2010,05,04,08,46,53.70
2010,05,04,08,47,53.70
2010,05,04,08,48,53.70
2010,05,04,08,49,53.70
2010,05,04,08,50,53.70
2010,05,04,08,51,53.70
2010,05,04,08,52,53.70
2010,05,04,08,53,53.70
2010,05,04,08,54,53.70
2010,05,04,08,55,53.70
2010,05,04,08,56,53.70
2010,05,04,08,57,53.70
2010,05,04,08,58,53.70
2010,05,04,08,59,53.70
2010,05,04,09,00,47.60
2010,05,04,09,01,47.60
2010,05,04,09,02,47.60
2010,05,04,09,03,47.60
2010,05,04,09,04,47.60
2010,05,04,09,05,47.60
2010,05,04,09,06,47.60
2010,05,04,09,07,47.60
2010,05,04,09,08,47.60
2010,05,04,09,09,47.60
2010,05,04,09,10,47.60
2010,05,04,09,11,47.60
2010,05,04,09,12,47.60
2010,05,04,09,13,47.60
2010,05,04,09,14,47.60
2010,05,04,09,15,53.70
2010,05,04,09,16,53.70
2010,05,04,09,17,53.70
2010,05,04,09,18,53.70
2010,05,04,09,19,53.70
2010,05,04,09,20,53.70
2010,05,04,09,21,53.70
2010,05,04,09,22,53.70
2010,05,04,09,23,53.70
2010,05,04,09,24,53.70
2010,05,04,09,25,53.70
2010,05,04,09,26,53.70
2010,05,04,09,27,53.70
2010,05,04,09,28,53.70
2010,05,04,09,29,53.70
2010,05,04,09,30,53.70
2010,05,04,09,31,53.70
2010,05,04,09,32,53.70
2010,05,04,09,33,53.70
2010,05,04,09,34,53.70
2010,05,04,09,35,53.70
2010,05,04,09,36,53.70
2010,05,04,09,37,53.70
2010,05,04,09,38,53.70
2010,05,04,09,39,53.70
2010,05,04,09,40,53.70
2010,05,04,09,41,53.70
2010,05,04,09,42,53.70
2010,05,04,09,43,53.70
2010,05,04,09,44,53.70
2010,05,04,09,45,47.60
2010,05,04,09,46,47.60
2010,05,04,09,47,47.60
2010,05,04,09,48,47.60
2010,05,04,09,49,47.60
2010,05,04,09,50,47.60
2010,05,04,09,51,47.60
2010,05,04,09,52,47.60
2010,05,04,09,53,47.60
2010,05,04,09,54,47.60
2010,05,04,09,55,47.60
2010,05,04,09,56,47.60
2010,05,04,09,57,47.60
2010,05,04,09,58,47.60
2010,05,04,09,59,47.60
2010,05,04,10,00,44.60
2010,05,04,10,01,44.60
2010,05,04,10,02,44.60
2010,05,04,10,03,44.60
2010,05,04,10,04,44.60
2010,05,04,10,05,44.60
2010,05,04,10,06,44.60
2010,05,04,10,07,44.60
2010,05,04,10,08,44.60
2010,05,04,10,09,44.60
2010,05,04,10,10,44.60
2010,05,04,10,11,44.60
2010,05,04,10,12,44.60
2010,05,04,10,13,44.60
2010,05,04,10,14,44.60
2010,05,04,10,15,56.70
2010,05,04,10,16,56.70
2010,05,04,10,17,56.70
2010,05,04,10,18,56.70
2010,05,04,10,19,56.70
2010,05,04,10,20,56.70
2010,05,04,10,21,56.70
2010,05,04,10,22,56.70
2010,05,04,10,23,56.70
2010,05,04,10,24,56.70
2010,05,04,10,25,56.70
2010,05,04,10,26,56.70
2010,05,04,10,27,56.70
2010,05,04,10,28,56.70
2010,05,04,10,29,56.70
2010,05,04,10,30,56.70
2010,05,04,10,31,56.70
2010,05,04,10,32,56.70
2010,05,04,10,33,56.70
2010,05,04,10,34,56.70
2010,05,04,10,35,56.70
2010,05,04,10,36,56.70
2010,05,04,10,37,56.70
2010,05,04,10,38,56.70
2010,05,04,10,39,56.70
2010,05,04,10,40,56.70
2010,05,04,10,41,56.70
2010,05,04,10,42,56.70
2010,05,04,10,43,56.70
2010,05,04,10,44,56.70
2010,05,04,10,45,38.70
2010,05,04,10,46,38.70
2010,05,04,10,47,38.70
2010,05,04,10,48,38.70
2010,05,04,10,49,38.70
2010,05,04,10,50,38.70
2010,05,04,10,51,38.70
2010,05,04,10,52,38.70
2010,05,04,10,53,38.70
2010,05,04,10,54,38.70
2010,05,04,10,55,38.70
2010,05,04,10,56,38.70
2010,05,04,10,57,38.70
2010,05,04,10,58,38.70
2010,05,04,10,59,38.70
2010,05,04,11,00,53.70
2010,05,04,11,01,53.70
2010,05,04,11,02,53.70
2010,05,04,11,03,53.70
2010,05,04,11,04,53.70
2010,05,04,11,05,53.70
2010,05,04,11,06,53.70
2010,05,04,11,07,53.70
2010,05,04,11,08,53.70
2010,05,04,11,09,53.70
2010,05,04,11,10,53.70
2010,05,04,11,11,53.70
2010,05,04,11,12,53.70
2010,05,04,11,13,53.70
2010,05,04,11,14,53.70
2010,05,04,11,15,38.70
2010,05,04,11,16,38.70
2010,05,04,11,17,38.70
2010,05,04,11,18,38.70
2010,05,04,11,19,38.70
2010,05,04,11,20,38.70
2010,05,04,11,21,38.70
2010,05,04,11,22,38.70
2010,05,04,11,23,38.70
2010,05,04,11,24,38.70
2010,05,04,11,25,38.70
2010,05,04,11,26,38.70
2010,05,04,11,27,38.70
2010,05,04,11,28,38.70
2010,05,04,11,29,38.70
2010,05,04,11,30,32.80
2010,05,04,11,31,32.80
2010,05,04,11,32,32.80
2010,05,04,11,33,32.80
2010,05,04,11,34,32.80
2010,05,04,11,35,32.80
2010,05,04,11,36,32.80
2010,05,04,11,37,32.80
2010,05,04,11,38,32.80
2010,05,04,11,39,32.80
2010,05,04,11,40,32.80
2010,05,04,11,41,32.80
2010,05,04,11,42,32.80
2010,05,04,11,43,32.80
2010,05,04,11,44,32.80
2010,05,04,11,45,38.70
2010,05,04,11,46,38.70
2010,05,04,11,47,38.70
2010,05,04,11,48,38.70
2010,05,04,11,49,38.70
2010,05,04,11,50,38.70
2010,05,04,11,51,38.70
2010,05,04,11,52,38.70
2010,05,04,11,53,38.70
2010,05,04,11,54,38.70
2010,05,04,11,55,38.70
2010,05,04,11,56,38.70
2010,05,04,11,57,38.70
2010,05,04,11,58,38.70
2010,05,04,11,59,38.70
2010,05,04,12,00,29.80
2010,05,04,12,01,29.80
2010,05,04,12,02,29.80
2010,05,04,12,03,29.80
2010,05,04,12,04,29.80
2010,05,04,12,05,29.80
2010,05,04,12,06,29.80
2010,05,04,12,07,29.80
2010,05,04,12,08,29.80
2010,05,04,12,09,29.80
2010,05,04,12,10,29.80
2010,05,04,12,11,29.80
2010,05,04,12,12,29.80
2010,05,04,12,13,29.80
2010,05,04,12,14,29.80
2010,05,04,12,15,29.80
2010,05,04,12,16,29.80
2010,05,04,12,17,29.80
2010,05,04,12,18,29.80
2010,05,04,12,19,29.80
2010,05,04,12,20,29.80
2010,05,04,12,22,29.80
2010,05,04,12,23,29.80
2010,05,04,12,24,29.80
2010,05,04,12,25,29.80
2010,05,04,12,26,29.80
2010,05,04,12,27,29.80
2010,05,04,12,28,29.80
2010,05,04,12,29,29.80
2010,05,04,12,30,41.70
2010,05,04,12,31,41.70
2010,05,04,12,32,41.70
2010,05,04,12,33,41.70
2010,05,04,12,34,41.70
2010,05,04,12,35,41.70
2010,05,04,12,36,41.70
2010,05,04,12,37,41.70
2010,05,04,12,38,41.70
2010,05,04,12,39,41.70
2010,05,04,12,40,41.70
2010,05,04,12,41,41.70
2010,05,04,12,42,41.70
2010,05,04,12,43,41.70
2010,05,04,12,44,41.70
2010,05,04,12,45,65.60
2010,05,04,12,46,65.60
2010,05,04,12,47,65.60
2010,05,04,12,48,65.60
2010,05,04,12,49,65.60
2010,05,04,12,50,65.60
2010,05,04,12,51,65.60
2010,05,04,12,52,65.60
2010,05,04,12,53,65.60
2010,05,04,12,54,65.60
2010,05,04,12,55,65.60
2010,05,04,12,56,65.60
2010,05,04,12,57,65.60
2010,05,04,12,58,65.60
2010,05,04,12,59,65.60
2010,05,04,13,00,71.50
2010,05,04,13,01,71.50
2010,05,04,13,02,71.50
2010,05,04,13,03,71.50
2010,05,04,13,04,71.50
2010,05,04,13,05,71.50
2010,05,04,13,06,71.50
2010,05,04,13,07,71.50
2010,05,04,13,08,71.50
2010,05,04,13,09,71.50
2010,05,04,13,10,71.50
2010,05,04,13,11,71.50
2010,05,04,13,12,71.50
2010,05,04,13,13,71.50
2010,05,04,13,14,71.50
2010,05,04,13,15,68.50
2010,05,04,13,16,68.50
2010,05,04,13,17,68.50
2010,05,04,13,18,68.50
2010,05,04,13,19,68.50
2010,05,04,13,20,68.50
2010,05,04,13,21,68.50
2010,05,04,13,22,68.50
2010,05,04,13,23,68.50
2010,05,04,13,24,68.50
2010,05,04,13,25,68.50
2010,05,04,13,26,68.50
2010,05,04,13,27,68.50
2010,05,04,13,28,68.50
2010,05,04,13,29,68.50
2010,05,04,13,30,53.70
2010,05,04,13,31,53.70
2010,05,04,13,32,53.70
2010,05,04,13,33,53.70
2010,05,04,13,34,53.70
2010,05,04,13,35,53.70
2010,05,04,13,36,53.70
2010,05,04,13,37,53.70
2010,05,04,13,38,53.70
2010,05,04,13,39,53.70
2010,05,04,13,40,53.70
2010,05,04,13,41,53.70
2010,05,04,13,42,53.70
2010,05,04,13,43,53.70
2010,05,04,13,44,53.70
2010,05,04,13,45,62.60
2010,05,04,13,46,62.60
2010,05,04,13,47,62.60
2010,05,04,13,48,62.60
2010,05,04,13,49,62.60
2010,05,04,13,50,62.60
2010,05,04,13,51,62.60
2010,05,04,13,52,62.60
2010,05,04,13,53,62.60
2010,05,04,13,54,62.60
2010,05,04,13,55,62.60
2010,05,04,13,56,62.60
2010,05,04,13,57,62.60
2010,05,04,13,58,62.60
2010,05,04,13,59,62.60
2010,05,04,14,00,38.70
2010,05,04,14,01,38.70
2010,05,04,14,02,38.70
2010,05,04,14,03,38.70
2010,05,04,14,04,38.70
2010,05,04,14,05,38.70
2010,05,04,14,06,38.70
2010,05,04,14,07,38.70
2010,05,04,14,08,38.70
2010,05,04,14,09,38.70
2010,05,04,14,10,38.70
2010,05,04,14,11,38.70
2010,05,04,14,12,38.70
2010,05,04,14,13,38.70
2010,05,04,14,14,38.70
2010,05,04,14,15,38.70
2010,05,04,14,16,38.70
2010,05,04,14,17,38.70
2010,05,04,14,18,38.70
2010,05,04,14,19,38.70
2010,05,04,14,20,38.70
2010,05,04,14,21,38.70
2010,05,04,14,22,38.70
2010,05,04,14,23,38.70
2010,05,04,14,24,38.70
2010,05,04,14,25,38.70
2010,05,04,14,26,38.70
2010,05,04,14,27,38.70
2010,05,04,14,28,38.70
2010,05,04,14,29,38.70
2010,05,04,14,30,29.80
2010,05,04,14,31,29.80
2010,05,04,14,32,29.80
2010,05,04,14,33,29.80
2010,05,04,14,34,29.80
2010,05,04,14,35,29.80
2010,05,04,14,36,29.80
2010,05,04,14,37,29.80
2010,05,04,14,38,29.80
2010,05,04,14,39,29.80
2010,05,04,14,40,29.80
2010,05,04,14,41,29.80
2010,05,04,14,42,29.80
2010,05,04,14,43,29.80
2010,05,04,14,44,29.80
2010,05,04,14,45,38.70
2010,05,04,14,46,38.70
2010,05,04,14,47,38.70
2010,05,04,14,48,38.70
2010,05,04,14,49,38.70
2010,05,04,14,50,38.70
2010,05,04,14,51,38.70
2010,05,04,14,52,38.70
2010,05,04,14,53,38.70
2010,05,04,14,54,38.70
2010,05,04,14,55,38.70
2010,05,04,14,56,38.70
2010,05,04,14,57,38.70
2010,05,04,14,58,38.70
2010,05,04,14,59,38.70
2010,05,04,15,00,35.70
2010,05,04,15,01,35.70
2010,05,04,15,02,35.70
2010,05,04,15,03,35.70
2010,05,04,15,04,35.70
2010,05,04,15,05,35.70
2010,05,04,15,06,35.70
2010,05,04,15,07,35.70
2010,05,04,15,08,35.70
2010,05,04,15,09,35.70
2010,05,04,15,10,35.70
2010,05,04,15,11,35.70
2010,05,04,15,12,35.70
2010,05,04,15,13,35.70
2010,05,04,15,14,35.70
2010,05,04,15,15,56.70
2010,05,04,15,16,56.70
2010,05,04,15,17,56.70
2010,05,04,15,18,56.70
2010,05,04,15,19,56.70
2010,05,04,15,20,56.70
2010,05,04,15,21,56.70
2010,05,04,15,22,56.70
2010,05,04,15,23,56.70
2010,05,04,15,24,56.70
2010,05,04,15,25,56.70
2010,05,04,15,26,56.70
2010,05,04,15,27,56.70
2010,05,04,15,28,56.70
2010,05,04,15,29,56.70
2010,05,04,15,30,56.70
2010,05,04,15,31,56.70
2010,05,04,15,32,56.70
2010,05,04,15,33,56.70
2010,05,04,15,34,56.70
2010,05,04,15,35,56.70
2010,05,04,15,36,56.70
2010,05,04,15,37,56.70
2010,05,04,15,38,56.70
2010,05,04,15,39,56.70
2010,05,04,15,40,56.70
2010,05,04,15,41,56.70
2010,05,04,15,42,56.70
2010,05,04,15,43,56.70
2010,05,04,15,44,56.70
2010,05,04,15,45,62.60
2010,05,04,15,46,62.60
2010,05,04,15,47,62.60
2010,05,04,15,48,62.60
2010,05,04,15,49,62.60
2010,05,04,15,50,62.60
2010,05,04,15,51,62.60
2010,05,04,15,52,62.60
2010,05,04,15,53,62.60
2010,05,04,15,54,62.60
2010,05,04,15,55,62.60
2010,05,04,15,56,62.60
2010,05,04,15,57,62.60
2010,05,04,15,58,62.60
2010,05,04,15,59,62.60
2010,05,04,16,00,47.60
2010,05,04,16,01,47.60
2010,05,04,16,02,47.60
2010,05,04,16,03,47.60
2010,05,04,16,04,47.60
2010,05,04,16,05,47.60
2010,05,04,16,06,47.60
2010,05,04,16,07,47.60
2010,05,04,16,08,47.60
2010,05,04,16,09,47.60
2010,05,04,16,10,47.60
2010,05,04,16,11,47.60
2010,05,04,16,12,47.60
2010,05,04,16,13,47.60
2010,05,04,16,14,47.60
2010,05,04,16,15,47.60
2010,05,04,16,16,47.60
2010,05,04,16,17,47.60
2010,05,04,16,18,47.60
2010,05,04,16,19,47.60
2010,05,04,16,20,47.60
2010,05,04,16,21,47.60
2010,05,04,16,22,47.60
2010,05,04,16,23,47.60
2010,05,04,16,24,47.60
2010,05,04,16,25,47.60
2010,05,04,16,26,47.60
2010,05,04,16,27,47.60
2010,05,04,16,28,47.60
2010,05,04,16,29,47.60
2010,05,04,16,30,47.60
2010,05,04,16,31,47.60
2010,05,04,16,32,47.60
2010,05,04,16,33,47.60
2010,05,04,16,34,47.60
2010,05,04,16,35,47.60
2010,05,04,16,36,47.60
2010,05,04,16,37,47.60
2010,05,04,16,38,47.60
2010,05,04,16,39,47.60
2010,05,04,16,40,47.60
2010,05,04,16,41,47.60
2010,05,04,16,42,47.60
2010,05,04,16,43,47.60
2010,05,04,16,44,47.60
2010,05,04,16,45,44.60
2010,05,04,16,46,44.60
2010,05,04,16,47,44.60
2010,05,04,16,48,44.60
2010,05,04,16,49,44.60
2010,05,04,16,50,44.60
2010,05,04,16,51,44.60
2010,05,04,16,52,44.60
2010,05,04,16,53,44.60
2010,05,04,16,54,44.60
2010,05,04,16,55,44.60
2010,05,04,16,56,44.60
2010,05,04,16,57,44.60
2010,05,04,16,58,44.60
2010,05,04,16,59,44.60
2010,05,04,17,00,29.80
2010,05,04,17,01,29.80
2010,05,04,17,02,29.80
2010,05,04,17,03,29.80
2010,05,04,17,04,29.80
2010,05,04,17,05,29.80
2010,05,04,17,06,29.80
2010,05,04,17,07,29.80
2010,05,04,17,08,29.80
2010,05,04,17,09,29.80
2010,05,04,17,10,29.80
2010,05,04,17,11,29.80
2010,05,04,17,12,29.80
2010,05,04,17,13,29.80
2010,05,04,17,14,29.80
2010,05,04,17,15,38.70
2010,05,04,17,16,38.70
2010,05,04,17,17,38.70
2010,05,04,17,18,38.70
2010,05,04,17,19,38.70
2010,05,04,17,20,38.70